Portsmouth, NH

8:13 AM EST on February 07, 2016 (GMT -0500)
Pease International Tradeport

Weather History for KPSM - February, 2014

Change the Weather History Date:

Wednesday, February 5, 2014

  Actual Average Record
Temperature  
Mean Temperature 25 °F -  
Max Temperature 29 °F 33 °F 61 °F (1991)
Min Temperature 20 °F 17 °F -14 °F (1996)
Degree Days  
Heating Degree Days 40    
Moisture  
Dew Point 20 °F    
Average Humidity 86    
Maximum Humidity 100    
Minimum Humidity 50    
Precipitation  
Precipitation 0.37 in - - ()
Snow  
Snow 0.00 in - - ()
Snow Depth 9.00 in    
Sea Level Pressure  
Sea Level Pressure 29.96 in    
Wind  
Wind Speed 9 mph (NNE)    
Max Wind Speed 17 mph    
Max Gust Speed 25 mph    
Visibility 4 miles    
Events Fog , Snow    
Averages and records for this station are not official NWS values.
T = Trace of Precipitation, MM = Missing Value Source: NWS Daily Summary

Daily Weather History Graph

Daily Weather History Graph

Search for Another Location

Airport or City:

Trip Planner

Search our weather history database for the weather conditions in past years. The results will help you decide how hot, cold, wet, or windy it might be!

Date:

Astronomy

Feb. 05, 2014 Rise Set
Actual Time 6:54 AM EST 5:01 PM EST
Civil Twilight 6:24 AM EST 5:31 PM EST
Nautical Twilight 5:50 AM EST 6:04 PM EST
Astronomical Twilight 5:17 AM EST 6:37 PM EST
Moon 9:55 AM EST (2/5) No Moon Set
Length of Visible Light 11h 06m
Length of Day
10h 07m
Waxing Crescent, 39% of the Moon is Illuminated
Feb 5
Waxing Crescent
Feb 6
First Quarter
Feb 14
Full
Feb 22
Last Quarter
Mar 1
New

Hourly Weather History & Observations

Time (EST) Temp. Windchill Dew Point Humidity Pressure Visibility Wind Dir Wind Speed Gust Speed Precip Events Conditions
12:58 AM 29.5 °F 23.4 °F 14.0 °F 53% 30.29 in 10.0 mi NE 5.8 mph - N/A   Overcast
1:58 AM 29.3 °F - 12.6 °F 50% 30.30 in 10.0 mi NNE 1.2 mph - N/A   Overcast
2:58 AM 29.3 °F 21.5 °F 13.5 °F 52% 30.27 in 10.0 mi NNE 8.1 mph - N/A   Overcast
3:58 AM 29.3 °F 24.3 °F 14.5 °F 54% 30.27 in 10.0 mi NE 4.6 mph - N/A   Overcast
4:58 AM 28.8 °F 20.9 °F 20.1 °F 70% 30.22 in 10.0 mi NNE 8.1 mph - N/A   Overcast
5:25 AM 28.4 °F 20.4 °F 21.2 °F 74% 30.19 in 8.0 mi NNE 8.1 mph - N/A Snow Light Snow
5:58 AM 29.1 °F 20.0 °F 20.8 °F 71% 30.20 in 8.0 mi NE 10.4 mph - 0.00 in Snow Light Snow
6:14 AM 28.4 °F 20.4 °F 23.0 °F 80% 30.19 in 1.5 mi NNE 8.1 mph 18.4 mph N/A Snow Light Snow
6:18 AM 28.4 °F 19.7 °F 24.8 °F 86% 30.18 in 0.5 mi NNE 9.2 mph - N/A Fog , Snow Light Snow
6:58 AM 26.8 °F 17.7 °F 26.6 °F 99% 30.19 in 0.5 mi NE 9.2 mph - 0.04 in Snow Snow
7:28 AM 24.8 °F 13.4 °F 24.8 °F 100% 30.16 in 0.4 mi North 12.7 mph - N/A Fog , Snow Snow
7:58 AM 24.3 °F 12.7 °F 23.7 °F 98% 30.16 in 0.4 mi NNE 12.7 mph - 0.06 in Fog , Snow Snow
8:43 AM 23.0 °F 13.1 °F 23.0 °F 100% 30.12 in 0.2 mi NNE 9.2 mph - N/A Fog , Snow Snow
8:58 AM 23.5 °F 13.0 °F 23.0 °F 98% 30.13 in 0.2 mi NNE 10.4 mph - 0.05 in Fog , Snow Snow
9:58 AM 23.5 °F 13.0 °F 23.0 °F 98% 30.07 in 0.2 mi NNE 10.4 mph - 0.04 in Fog , Snow Snow
10:58 AM 22.8 °F 12.2 °F 22.1 °F 97% 29.99 in 0.2 mi NNE 10.4 mph 19.6 mph 0.03 in Fog , Snow Snow
11:58 AM 23.4 °F 12.2 °F 22.5 °F 96% 29.92 in 0.4 mi NNE 11.5 mph - 0.03 in Fog , Snow Snow
12:38 PM 23.0 °F 9.6 °F 23.0 °F 100% 29.81 in 0.6 mi NNE 16.1 mph - N/A Snow Light Snow
12:58 PM 23.9 °F 11.2 °F 22.6 °F 95% 29.81 in 0.6 mi NNE 15.0 mph - 0.01 in Snow Light Snow
1:58 PM 24.6 °F 13.2 °F 24.1 °F 98% 29.74 in 0.5 mi North 12.7 mph - 0.01 in Fog , Snow Light Snow
2:58 PM 25.3 °F 16.0 °F 24.8 °F 98% 29.71 in 0.5 mi NNE 9.2 mph - 0.01 in Fog , Snow Light Snow
3:58 PM 24.4 °F 11.0 °F 23.9 °F 98% 29.76 in 0.4 mi NNW 17.3 mph - 0.04 in Fog , Snow Snow
4:58 PM 23.2 °F 9.8 °F 22.1 °F 96% 29.74 in 0.8 mi North 16.1 mph 21.9 mph 0.04 in Snow Light Snow
5:07 PM 23.0 °F 9.2 °F 21.2 °F 93% 29.71 in 2.0 mi North 17.3 mph 23.0 mph N/A Snow Light Snow
5:21 PM 23.0 °F 10.1 °F 21.2 °F 93% 29.71 in 3.0 mi NNE 15.0 mph 20.7 mph N/A Snow Light Snow
5:30 PM 23.0 °F 10.6 °F 19.4 °F 86% 29.71 in 7.0 mi North 13.8 mph 20.7 mph N/A Snow Light Snow
5:58 PM 22.3 °F 9.7 °F 19.2 °F 88% 29.72 in 10.0 mi North 13.8 mph 25.3 mph 0.00 in Snow Light Snow
6:58 PM 22.3 °F 11.5 °F 18.3 °F 85% 29.75 in 10.0 mi North 10.4 mph - 0.00 in Snow Light Snow
7:58 PM 22.1 °F 8.9 °F 18.0 °F 84% 29.77 in 10.0 mi North 15.0 mph - 0.00 in Snow Light Snow
8:17 PM 21.2 °F 8.9 °F 17.6 °F 86% 29.76 in 1.5 mi North 12.7 mph 21.9 mph N/A Snow Light Snow
8:43 PM 21.2 °F 7.3 °F 17.6 °F 86% 29.78 in 2.0 mi North 16.1 mph - N/A Snow Light Snow
8:58 PM 21.4 °F 8.0 °F 18.0 °F 87% 29.80 in 2.0 mi North 15.0 mph 21.9 mph 0.00 in Snow Light Snow
9:28 PM 21.2 °F 8.9 °F 17.6 °F 86% 29.82 in 2.0 mi North 12.7 mph - N/A Snow Light Snow
9:58 PM 21.2 °F 9.5 °F 18.0 °F 87% 29.86 in 2.0 mi North 11.5 mph - 0.01 in Snow Light Snow
10:21 PM 21.2 °F 10.1 °F 17.6 °F 86% 29.85 in 3.0 mi North 10.4 mph - N/A Snow Light Snow
10:58 PM 21.0 °F 9.9 °F 17.1 °F 85% 29.90 in 5.0 mi North 10.4 mph - 0.00 in Snow Light Snow
11:58 PM 20.7 °F 11.9 °F 15.3 °F 80% 29.95 in 10.0 mi North 6.9 mph - 0.00 in   Mostly Cloudy